Flag Weather past 2 weeks in Winsen (Luhe), Lower Saxony, Germany

Now
46 °F

Partly cloudy.


Feels Like: 42 °F
Forecast: 40 / 47 °F
Wind: 9 mph from Southeast

Location: Hamburg-Fuhlsbuettel

Current Time: Nov 24, 2014 at 2:42:38 AM

Latest Report: Nov 24, 2014 at 2:20 AM


Visibility: N/A

Pressure: 29.92 "Hg

Humidity: 87%

Dew point: 43 °F

Location of Winsen (Luhe)Location

Historic Weather in Winsen (Luhe) — Graph

°F

Winsen (Luhe) temperature yesterday

Maximum temperature yesterday: 48 °F (at 2:50 PM)
Minimum temperature yesterday: 41 °F (at 12:20 AM)
Average temperature yesterday: 44 °F

Past Weeks' High & Low Weather Summary

 TemperatureHumidityPressure
High54 °F (Nov 9, 12:20 PM)100% (Nov 9, 1:20 AM)30.36 "Hg (Nov 9, 1:20 AM)
Low28 °F (Nov 21, 2:20 AM)72% (Nov 9, 12:20 PM)29.56 "Hg (Nov 16, 12:20 PM)
Average45 °F93%29.94 "Hg
* Reported Nov 9 1:20 AM — Nov 24 1:20 AM, Winsen (Luhe), Weather by CustomWeather, © 2014

Note: Actual official high and low records may vary slightly from our data, if they occured in-between our weather recording intervals... More about our weather records

Advertising

Winsen (Luhe) weather history for previous 24 hours

 ConditionsComfort  
Time TempWeatherWind HumidityBarometerVisibility
1:20 AM
Nov 24
46 °FClear.10 mph87%29.92 "Hg10 mi
12:20 AM46 °FClear.10 mph87%29.95 "Hg10 mi
11:50 PM
Nov 23
46 °FClear.10 mph87%29.95 "Hg10 mi
11:20 PM48 °FClear.12 mph82%29.95 "Hg10 mi
10:50 PM46 °FClear.10 mph87%29.98 "Hg10 mi
10:20 PM46 °FClear.13 mph87%29.98 "Hg10 mi
9:20 PM46 °FClear.13 mph87%29.98 "Hg10 mi
8:50 PM46 °FClear.14 mph87%29.98 "Hg10 mi
8:20 PM46 °FClear.15 mph87%29.98 "Hg10 mi
7:50 PM46 °FClear.15 mph87%30.01 "Hg10 mi
7:20 PM46 °FClear.13 mph87%30.01 "Hg10 mi
6:50 PM46 °FClear.16 mph87%30.01 "Hg10 mi
6:20 PM46 °FClear.15 mph87%30.01 "Hg10 mi
5:50 PM46 °FClear.14 mph87%30.01 "Hg10 mi
5:20 PM46 °FClear.12 mph87%30.04 "Hg10 mi
4:50 PM46 °FClear.10 mph87%30.04 "Hg10 mi
4:20 PM48 °FClear.12 mph82%30.04 "Hg10 mi
3:50 PM48 °FPassing clouds.12 mph82%30.04 "HgN/A
3:20 PM48 °FSunny.10 mph82%30.07 "Hg10 mi
2:50 PM48 °FSunny.10 mph82%30.07 "Hg10 mi
2:20 PM46 °FSunny.10 mph87%30.07 "Hg10 mi
1:50 PM46 °FSunny.9 mph87%30.09 "Hg10 mi
1:20 PM46 °FSunny.9 mph87%30.09 "Hg10 mi
12:50 PM45 °FSunny.9 mph87%30.09 "Hg10 mi
12:20 PM45 °FSunny.13 mph87%30.12 "Hg10 mi
11:50 AM43 °FPartly sunny.12 mph93%30.12 "Hg4 mi
11:20 AM43 °FPartly sunny.10 mph87%30.12 "Hg4 mi
10:50 AM43 °FBroken clouds.9 mph87%30.15 "Hg4 mi
10:20 AM43 °FBroken clouds.8 mph87%30.15 "Hg4 mi
9:50 AM41 °FBroken clouds.8 mph93%30.15 "Hg4 mi
9:20 AM41 °FBroken clouds.8 mph93%30.12 "Hg4 mi
8:50 AM41 °FBroken clouds.5 mph93%30.15 "Hg4 mi
8:20 AM41 °FBroken clouds.8 mph93%30.15 "Hg5 mi
7:50 AM41 °FLight rain. Passing clouds.13 mph93%30.12 "Hg6 mi
7:20 AM41 °FPassing clouds.7 mph87%30.12 "HgN/A
6:50 AM41 °FPassing clouds.6 mph87%30.12 "HgN/A
6:20 AM41 °FClear.8 mph87%30.12 "Hg10 mi
5:50 AM41 °FClear.8 mph87%30.12 "Hg10 mi
5:20 AM41 °FClear.8 mph87%30.12 "Hg10 mi
4:50 AM41 °FClear.8 mph87%30.12 "Hg10 mi
4:20 AM41 °FClear.9 mph87%30.12 "Hg10 mi
3:50 AM41 °FClear.9 mph87%30.12 "Hg10 mi
3:20 AM41 °FClear.9 mph87%30.12 "Hg10 mi
2:50 AM41 °FClear.9 mph87%30.12 "Hg10 mi
2:20 AM41 °FClear.9 mph87%30.15 "Hg10 mi
Weather by CustomWeather, © 2014

See weather overviewHow to use our weather pages